| time (UTC) | temp F | wind direction | speed knots | gust knots | rain 1hr in | rain 24hr in | rain mn in | humidity % | barometer mb |
| 20260505083325 | 35 | 246 | 0.0 | 2.6 | 0.00 | 0.00 | 0.00 | 76 | 1007.3 |
| 20260505082821 | 35 | 289 | 0.0 | 0.9 | 0.00 | 0.00 | 0.00 | 76 | 1007.1 |
| 20260505082322 | 35 | 152 | 0.0 | 0.9 | 0.00 | 0.00 | 0.00 | 75 | 1007.1 |
| 20260505081823 | 35 | 150 | 0.0 | 0.0 | 0.00 | 0.00 | 0.00 | 75 | 1007.0 |
| 20260505081551 | 36 | 150 | 0.0 | 0.9 | 0.00 | 0.00 | 0.00 | 74 | 1007.0 |
| 20260505080819 | 36 | 354 | 0.0 | 0.9 | 0.00 | 0.00 | 0.00 | 73 | 1006.9 |
| 20260505080318 | 36 | 98 | 0.0 | 0.9 | 0.00 | 0.00 | 0.00 | 73 | 1006.8 |
| 20260505075820 | 37 | 82 | 0.0 | 2.6 | 0.00 | 0.00 | 0.00 | 72 | 1006.8 |
| 20260505075548 | 37 | 153 | 0.0 | 2.6 | 0.00 | 0.00 | 0.00 | 71 | 1006.9 |
| 20260505074817 | 37 | 141 | 0.0 | 1.7 | 0.00 | 0.00 | 0.00 | 71 | 1006.9 |
| 20260505074318 | 37 | 229 | 0.0 | 1.7 | 0.00 | 0.00 | 0.00 | 70 | 1006.9 |
| 20260505074049 | 38 | 232 | 0.0 | 0.9 | 0.00 | 0.00 | 0.00 | 69 | 1006.9 |
| 20260505073317 | 38 | 158 | 0.0 | 1.7 | 0.00 | 0.00 | 0.00 | 68 | 1006.9 |
| 20260505072816 | 38 | 147 | 0.0 | 1.7 | 0.00 | 0.00 | 0.00 | 67 | 1006.8 |
| 20260505072316 | 39 | 109 | 0.9 | 2.6 | 0.00 | 0.00 | 0.00 | 66 | 1006.8 |
| 20260505071821 | 39 | 160 | 0.9 | 2.6 | 0.00 | 0.00 | 0.00 | 65 | 1006.7 |
| 20260505071816 | 39 | 242 | 0.9 | 2.6 | 0.00 | 0.00 | 0.00 | 65 | 1006.7 |
| 20260505070817 | 39 | 159 | 1.7 | 2.6 | 0.00 | 0.00 | 0.00 | 65 | 1006.7 |
| 20260505070310 | 40 | 194 | 1.7 | 3.5 | 0.00 | 0.00 | 0.00 | 64 | 1006.8 |
| 20260505065805 | 40 | 169 | 0.9 | 3.5 | 0.00 | 0.00 | 0.00 | 64 | 1006.8 |
| 20260505065259 | 40 | 166 | 0.9 | 5.2 | 0.00 | 0.00 | 0.00 | 64 | 1006.7 |
| 20260505064753 | 40 | 165 | 1.7 | 5.2 | 0.00 | 0.00 | 0.00 | 64 | 1006.7 |
| 20260505064247 | 40 | 163 | 1.7 | 3.5 | 0.00 | 0.00 | 0.00 | 63 | 1006.7 |
| 20260505063741 | 40 | 259 | 0.9 | 3.5 | 0.00 | 0.00 | 0.00 | 64 | 1006.7 |
| 20260505063505 | 40 | 212 | 0.9 | 3.5 | 0.00 | 0.00 | 0.00 | 64 | 1006.6 |
| 20260505062729 | 40 | 140 | 0.9 | 2.6 | 0.00 | 0.00 | 0.00 | 64 | 1006.6 |
| 20260505062223 | 40 | 249 | 0.0 | 2.6 | 0.00 | 0.00 | 0.00 | 63 | 1006.7 |
| 20260505061717 | 40 | 124 | 0.9 | 3.5 | 0.00 | 0.00 | 0.00 | 63 | 1006.6 |
| 20260505061210 | 41 | 65 | 1.7 | 4.3 | 0.00 | 0.00 | 0.00 | 61 | 1006.6 |
| 20260505060705 | 41 | 235 | 1.7 | 4.3 | 0.00 | 0.00 | 0.00 | 62 | 1006.6 |
| 20260505060159 | 41 | 175 | 0.9 | 3.5 | 0.00 | 0.00 | 0.00 | 62 | 1006.5 |
| 20260505055653 | 41 | 168 | 0.9 | 2.6 | 0.00 | 0.00 | 0.00 | 62 | 1006.6 |
| 20260505055146 | 41 | 166 | 0.9 | 4.3 | 0.00 | 0.00 | 0.00 | 61 | 1006.5 |
| 20260505054917 | 41 | 177 | 0.9 | 4.3 | 0.00 | 0.00 | 0.00 | 61 | 1006.4 |
| 20260505054144 | 41 | 160 | 1.7 | 3.5 | 0.00 | 0.00 | 0.00 | 61 | 1006.5 |
| 20260505053644 | 41 | 181 | 1.7 | 4.3 | 0.00 | 0.00 | 0.00 | 61 | 1006.4 |
| 20260505053145 | 41 | 238 | 1.7 | 4.3 | 0.00 | 0.00 | 0.00 | 61 | 1006.5 |
| 20260505052643 | 41 | 221 | 1.7 | 3.5 | 0.00 | 0.00 | 0.00 | 62 | 1006.4 |
| 20260505052145 | 41 | 179 | 0.9 | 3.5 | 0.00 | 0.00 | 0.00 | 62 | 1006.4 |
| 20260505051643 | 41 | 163 | 0.9 | 2.6 | 0.00 | 0.00 | 0.00 | 63 | 1006.2 |
| 20260505051411 | 41 | 108 | 0.9 | 2.6 | 0.00 | 0.00 | 0.00 | 62 | 1006.2 |
| 20260505050639 | 40 | 89 | 0.9 | 1.7 | 0.00 | 0.00 | 0.00 | 64 | 1006.2 |
| 20260505050140 | 41 | 166 | 0.9 | 1.7 | 0.00 | 0.00 | 0.00 | 63 | 1006.2 |
| 20260505041634 | 39 | 215 | 0.0 | 1.7 | 0.00 | 0.00 | 0.00 | 66 | 1006.1 |
| 20260505041135 | 40 | 163 | 0.0 | 1.7 | 0.00 | 0.00 | 0.00 | 66 | 1006.1 |
| 20260505040634 | 40 | 207 | 0.0 | 1.7 | 0.00 | 0.00 | 0.00 | 66 | 1006.0 |
| 20260505040401 | 40 | 172 | 0.0 | 1.7 | 0.00 | 0.00 | 0.00 | 65 | 1006.0 |
| 20260505035629 | 40 | 163 | 0.0 | 1.7 | 0.00 | 0.00 | 0.00 | 66 | 1006.0 |
| 20260505035131 | 40 | 162 | 0.0 | 0.9 | 0.00 | 0.00 | 0.00 | 65 | 1006.0 |
| 20260505034902 | 40 | 205 | 0.0 | 0.9 | 0.00 | 0.00 | 0.00 | 64 | 1006.0 |
| 20260505034357 | 40 | 210 | 0.0 | 1.7 | 0.00 | 0.00 | 0.00 | 64 | 1006.0 |
| 20260505033624 | 41 | 194 | 0.9 | 1.7 | 0.00 | 0.00 | 0.00 | 63 | 1005.9 |
| 20260505033123 | 41 | 166 | 0.0 | 1.7 | 0.00 | 0.00 | 0.00 | 63 | 1005.9 |
| 20260505032616 | 41 | 205 | 0.0 | 0.9 | 0.00 | 0.00 | 0.00 | 62 | 1005.9 |
| 20260505032110 | 41 | 165 | 0.0 | 1.7 | 0.00 | 0.00 | 0.00 | 62 | 1005.9 |
| 20260505031608 | 42 | 165 | 0.9 | 1.7 | 0.00 | 0.00 | 0.00 | 61 | 1005.9 |
| 20260505031110 | 42 | 174 | 0.9 | 1.7 | 0.00 | 0.00 | 0.00 | 60 | 1005.9 |
| 20260505030608 | 42 | 156 | 0.0 | 1.7 | 0.00 | 0.00 | 0.00 | 60 | 1005.9 |
| 20260505030109 | 42 | 160 | 0.0 | 0.9 | 0.00 | 0.00 | 0.00 | 61 | 1005.8 |
| 20260505025609 | 42 | 208 | 0.0 | 1.7 | 0.00 | 0.00 | 0.00 | 60 | 1005.8 |
| 20260505025109 | 42 | 175 | 0.0 | 1.7 | 0.00 | 0.00 | 0.00 | 59 | 1005.8 |
| 20260505024609 | 43 | 211 | 0.9 | 1.7 | 0.00 | 0.00 | 0.00 | 58 | 1005.7 |
| 20260505024337 | 43 | 163 | 0.9 | 1.7 | 0.00 | 0.00 | 0.00 | 57 | 1005.7 |
| 20260505023608 | 43 | 194 | 0.0 | 1.7 | 0.00 | 0.00 | 0.00 | 57 | 1005.5 |
| 20260505023107 | 43 | 208 | 0.0 | 1.7 | 0.00 | 0.00 | 0.00 | 57 | 1005.5 |
| 20260505022606 | 43 | 166 | 0.0 | 0.9 | 0.00 | 0.00 | 0.00 | 57 | 1005.5 |
| 20260505022107 | 44 | 155 | 0.0 | 0.9 | 0.00 | 0.00 | 0.00 | 57 | 1005.4 |
| 20260505021610 | 44 | 202 | 0.0 | 0.9 | 0.00 | 0.00 | 0.00 | 55 | 1005.3 |
| 20260505021606 | 44 | 189 | 0.0 | 0.9 | 0.00 | 0.00 | 0.00 | 56 | 1005.4 |
| 20260505020602 | 44 | 202 | 0.0 | 1.7 | 0.00 | 0.00 | 0.00 | 54 | 1005.2 |
| 20260505020329 | 44 | 229 | 0.0 | 2.6 | 0.00 | 0.00 | 0.00 | 53 | 1005.2 |
| 20260505015821 | 45 | 258 | 0.9 | 4.3 | 0.00 | 0.00 | 0.00 | 53 | 1005.1 |
| 20260505015045 | 45 | 294 | 0.9 | 4.3 | 0.00 | 0.00 | 0.00 | 52 | 1005.1 |
| 20260505014539 | 45 | 114 | 0.0 | 1.7 | 0.00 | 0.00 | 0.00 | 52 | 1005.0 |
| 20260505014307 | 45 | 224 | 0.0 | 2.6 | 0.00 | 0.00 | 0.00 | 53 | 1004.9 |
| 20260505013527 | 46 | 277 | 0.9 | 2.6 | 0.00 | 0.00 | 0.00 | 52 | 1004.8 |
| 20260505013021 | 46 | 150 | 0.9 | 2.6 | 0.00 | 0.00 | 0.00 | 51 | 1004.8 |
| 20260505012514 | 46 | 219 | 0.9 | 2.6 | 0.00 | 0.00 | 0.00 | 51 | 1004.7 |
| 20260505012240 | 47 | 194 | 0.9 | 2.6 | 0.00 | 0.00 | 0.00 | 52 | 1004.6 |
| 20260505011503 | 47 | 253 | 0.9 | 2.6 | 0.00 | 0.00 | 0.00 | 50 | 1004.6 |
| 20260505011002 | 47 | 173 | 1.7 | 5.2 | 0.00 | 0.00 | 0.00 | 50 | 1004.5 |
| 20260505010500 | 47 | 41 | 1.7 | 6.1 | 0.00 | 0.00 | 0.00 | 49 | 1004.5 |
| 20260505010000 | 48 | 167 | 1.7 | 6.1 | 0.00 | 0.00 | 0.00 | 49 | 1004.4 |
| 20260505005500 | 48 | 205 | 1.7 | 6.1 | 0.00 | 0.00 | 0.00 | 48 | 1004.3 |
| 20260505004958 | 49 | 79 | 1.7 | 5.2 | 0.00 | 0.00 | 0.00 | 46 | 1004.3 |
| 20260505004456 | 49 | 132 | 1.7 | 5.2 | 0.00 | 0.00 | 0.00 | 47 | 1004.3 |
| 20260505003956 | 49 | 162 | 0.9 | 4.3 | 0.00 | 0.00 | 0.00 | 51 | 1004.3 |
| 20260505003459 | 49 | 89 | 0.9 | 4.3 | 0.00 | 0.00 | 0.00 | 51 | 1004.3 |
| 20260505002957 | 49 | 138 | 0.9 | 4.3 | 0.00 | 0.00 | 0.00 | 49 | 1004.2 |
| 20260505002454 | 49 | 283 | 0.9 | 3.5 | 0.00 | 0.00 | 0.00 | 49 | 1004.2 |
| 20260505001954 | 49 | 109 | 0.0 | 2.6 | 0.00 | 0.00 | 0.00 | 50 | 1004.2 |
| 20260505001726 | 49 | 91 | 0.9 | 5.2 | 0.00 | 0.00 | 0.00 | 50 | 1004.1 |
| 20260505000953 | 50 | 264 | 2.6 | 8.7 | 0.00 | 0.00 | 0.00 | 48 | 1004.0 |
| 20260505000454 | 51 | 176 | 1.7 | 8.7 | 0.00 | 0.00 | 0.00 | 45 | 1003.8 |
| 20260504235952 | 52 | 120 | 0.9 | 6.1 | 0.00 | 0.00 | 0.00 | 45 | 1003.7 |
| 20260504235453 | 52 | 222 | 1.7 | 6.1 | 0.00 | 0.00 | 0.00 | 46 | 1003.6 |
| 20260504235448 | 52 | 69 | 0.9 | 6.1 | 0.00 | 0.00 | 0.00 | 46 | 1003.6 |
| 20260504234449 | 53 | 338 | 1.7 | 6.1 | 0.00 | 0.00 | 0.00 | 43 | 1003.5 |
| 20260504233948 | 54 | 96 | 1.7 | 7.8 | 0.00 | 0.00 | 0.00 | 42 | 1003.4 |
| 20260504233448 | 54 | 314 | 0.9 | 7.8 | 0.00 | 0.00 | 0.00 | 43 | 1003.4 |
| 20260504233219 | 53 | 105 | 0.9 | 4.3 | 0.00 | 0.00 | 0.00 | 42 | 1003.3 |
| 20260504232447 | 54 | 210 | 0.9 | 5.2 | 0.00 | 0.00 | 0.00 | 45 | 1003.3 |
| 20260504231943 | 54 | 233 | 1.7 | 6.1 | 0.00 | 0.00 | 0.00 | 42 | 1003.1 |
| 20260504231442 | 55 | 86 | 1.7 | 6.1 | 0.00 | 0.00 | 0.00 | 44 | 1003.2 |
| 20260504230942 | 55 | 142 | 1.7 | 4.3 | 0.00 | 0.00 | 0.00 | 42 | 1003.2 |
| 20260504230715 | 55 | 282 | 1.7 | 7.0 | 0.00 | 0.00 | 0.00 | 43 | 1003.1 |
| 20260504225944 | 55 | 190 | 1.7 | 7.0 | 0.00 | 0.00 | 0.00 | 42 | 1003.0 |
| 20260504225713 | 55 | 78 | 1.7 | 5.2 | 0.00 | 0.00 | 0.00 | 42 | 1002.9 |
| 20260504224942 | 56 | 5 | 1.7 | 6.1 | 0.00 | 0.00 | 0.00 | 41 | 1002.7 |
| 20260504224443 | 55 | 58 | 1.7 | 6.1 | 0.00 | 0.00 | 0.00 | 43 | 1002.7 |
| 20260504223937 | 56 | 62 | 0.9 | 5.2 | 0.00 | 0.00 | 0.00 | 44 | 1002.6 |
| 20260504223432 | 56 | 302 | 1.7 | 5.2 | 0.00 | 0.00 | 0.00 | 41 | 1002.6 |
| 20260504223427 | 57 | 160 | 1.7 | 5.2 | 0.00 | 0.00 | 0.00 | 41 | 1002.5 |
| 20260504222649 | 56 | 15 | 1.7 | 7.0 | 0.00 | 0.00 | 0.00 | 43 | 1002.3 |
| 20260504221919 | 56 | 233 | 1.7 | 7.0 | 0.00 | 0.00 | 0.00 | 42 | 1002.2 |
| 20260504221425 | 56 | 167 | 1.7 | 8.7 | 0.00 | 0.00 | 0.00 | 44 | 1002.2 |
| 20260504221420 | 56 | 194 | 1.7 | 7.0 | 0.00 | 0.00 | 0.00 | 45 | 1002.3 |
| 20260504220417 | 56 | 108 | 1.7 | 8.7 | 0.00 | 0.00 | 0.00 | 44 | 1002.1 |
| 20260504215915 | 56 | 342 | 1.7 | 7.8 | 0.00 | 0.00 | 0.00 | 44 | 1002.0 |
| 20260504215414 | 57 | 190 | 0.9 | 7.0 | 0.00 | 0.00 | 0.00 | 44 | 1002.0 |
| 20260504214915 | 57 | 200 | 1.7 | 7.8 | 0.00 | 0.00 | 0.00 | 42 | 1001.9 |
| 20260504214414 | 57 | 238 | 1.7 | 7.8 | 0.00 | 0.00 | 0.00 | 44 | 1001.9 |
| 20260504214142 | 58 | 202 | 1.7 | 6.1 | 0.00 | 0.00 | 0.00 | 44 | 1001.8 |
| 20260504213412 | 58 | 133 | 1.7 | 5.2 | 0.00 | 0.00 | 0.00 | 44 | 1001.8 |
| 20260504212913 | 58 | 117 | 0.9 | 6.1 | 0.00 | 0.00 | 0.00 | 46 | 1001.5 |
| 20260504212412 | 59 | 318 | 1.7 | 6.1 | 0.00 | 0.00 | 0.00 | 43 | 1001.4 |
| 20260504211912 | 59 | 75 | 0.9 | 6.1 | 0.00 | 0.00 | 0.00 | 43 | 1001.3 |
| 20260504211412 | 60 | 352 | 1.7 | 9.6 | 0.00 | 0.00 | 0.00 | 43 | 1001.3 |
| 20260504210912 | 60 | 131 | 2.6 | 9.6 | 0.00 | 0.00 | 0.00 | 40 | 1001.4 |
| 20260504210412 | 60 | 165 | 2.6 | 6.1 | 0.00 | 0.00 | 0.00 | 41 | 1001.3 |
| 20260504210143 | 60 | 82 | 1.7 | 6.1 | 0.00 | 0.00 | 0.00 | 44 | 1001.3 |
| 20260504205407 | 58 | 5 | 2.6 | 6.1 | 0.00 | 0.00 | 0.00 | 50 | 1001.1 |
| 20260504204900 | 57 | 28 | 2.6 | 7.8 | 0.00 | 0.00 | 0.00 | 45 | 1001.2 |
| 20260504204355 | 58 | 354 | 1.7 | 7.8 | 0.00 | 0.00 | 0.00 | 44 | 1001.1 |
| 20260504203850 | 58 | 15 | 1.7 | 7.8 | 0.00 | 0.00 | 0.00 | 45 | 1001.1 |
| 20260504203342 | 60 | 193 | 1.7 | 7.0 | 0.00 | 0.00 | 0.00 | 44 | 1001.0 |
| 20260504202836 | 59 | 273 | 1.7 | 6.1 | 0.00 | 0.00 | 0.00 | 45 | 1001.0 |
| 20260504202331 | 58 | 348 | 1.7 | 6.1 | 0.00 | 0.00 | 0.00 | 48 | 1001.2 |
| 20260504201825 | 59 | 345 | 2.6 | 9.6 | 0.00 | 0.00 | 0.00 | 46 | 1001.0 |
| 20260504201319 | 59 | 155 | 2.6 | 9.6 | 0.00 | 0.00 | 0.00 | 45 | 1000.9 |
| 20260504201043 | 59 | 233 | 1.7 | 6.1 | 0.00 | 0.00 | 0.00 | 46 | 1000.9 |
| 20260504200307 | 60 | 13 | 0.9 | 7.0 | 0.00 | 0.00 | 0.00 | 43 | 1000.8 |
| 20260504195800 | 62 | 324 | 1.7 | 7.0 | 0.00 | 0.00 | 0.00 | 44 | 1000.8 |
| 20260504195255 | 62 | 323 | 1.7 | 6.1 | 0.00 | 0.00 | 0.00 | 44 | 1000.7 |
| 20260504195021 | 63 | 134 | 2.6 | 8.7 | 0.00 | 0.00 | 0.00 | 45 | 1000.5 |
| 20260504194244 | 64 | 214 | 2.6 | 11.3 | 0.00 | 0.00 | 0.00 | 43 | 1000.4 |
| 20260504193737 | 64 | 290 | 2.6 | 11.3 | 0.00 | 0.00 | 0.00 | 44 | 1000.3 |
| 20260504193231 | 64 | 165 | 2.6 | 7.8 | 0.00 | 0.00 | 0.00 | 45 | 1000.3 |
| 20260504192725 | 64 | 240 | 2.6 | 7.8 | 0.00 | 0.00 | 0.00 | 44 | 1000.2 |
| 20260504192219 | 64 | 225 | 1.7 | 7.0 | 0.00 | 0.00 | 0.00 | 43 | 1000.2 |
| 20260504191713 | 64 | 290 | 3.5 | 8.7 | 0.00 | 0.00 | 0.00 | 43 | 1000.2 |
| 20260504191207 | 63 | 139 | 2.6 | 8.7 | 0.00 | 0.00 | 0.00 | 45 | 1000.0 |
| 20260504190701 | 64 | 193 | 1.7 | 7.0 | 0.00 | 0.00 | 0.00 | 46 | 1000.1 |
| 20260504190155 | 63 | 316 | 1.7 | 7.0 | 0.00 | 0.00 | 0.00 | 46 | 999.9 |
| 20260504185650 | 63 | 102 | 1.7 | 8.7 | 0.00 | 0.00 | 0.00 | 47 | 999.8 |
| 20260504185644 | 62 | 312 | 2.6 | 8.7 | 0.00 | 0.00 | 0.00 | 44 | 999.7 |
| 20260504184636 | 62 | 180 | 2.6 | 8.7 | 0.00 | 0.00 | 0.00 | 48 | 999.7 |
| 20260504184131 | 63 | 95 | 2.6 | 8.7 | 0.00 | 0.00 | 0.00 | 45 | 999.7 |
| 20260504183625 | 63 | 204 | 2.6 | 8.7 | 0.00 | 0.00 | 0.00 | 46 | 999.6 |
| 20260504183349 | 63 | 252 | 2.6 | 6.1 | 0.00 | 0.00 | 0.00 | 48 | 999.6 |
| 20260504182613 | 62 | 162 | 2.6 | 8.7 | 0.00 | 0.00 | 0.00 | 48 | 999.4 |
| 20260504182107 | 61 | 133 | 2.6 | 8.7 | 0.00 | 0.00 | 0.00 | 45 | 999.4 |
| 20260504181601 | 61 | 295 | 2.6 | 7.8 | 0.00 | 0.00 | 0.00 | 44 | 999.2 |
| 20260504181054 | 62 | 18 | 1.7 | 7.8 | 0.00 | 0.00 | 0.00 | 45 | 999.2 |
| 20260504180819 | 63 | 321 | 1.7 | 6.1 | 0.00 | 0.00 | 0.00 | 46 | 999.1 |
| 20260504180042 | 64 | 94 | 1.7 | 8.7 | 0.00 | 0.00 | 0.00 | 47 | 999.1 |
| 20260504175537 | 64 | 39 | 1.7 | 8.7 | 0.00 | 0.00 | 0.00 | 46 | 998.9 |
| 20260504175031 | 64 | 97 | 1.7 | 7.8 | 0.00 | 0.00 | 0.00 | 47 | 999.0 |
| 20260504174524 | 64 | 68 | 2.6 | 8.7 | 0.00 | 0.00 | 0.00 | 42 | 998.7 |
| 20260504174019 | 64 | 113 | 2.6 | 8.7 | 0.00 | 0.00 | 0.00 | 43 | 998.6 |
| 20260504173744 | 64 | 176 | 2.6 | 9.6 | 0.00 | 0.00 | 0.00 | 46 | 998.8 |
| 20260504173239 | 64 | 131 | 2.6 | 9.6 | 0.00 | 0.00 | 0.00 | 40 | 998.7 |
| 20260504172501 | 64 | 222 | 2.6 | 7.8 | 0.00 | 0.00 | 0.00 | 45 | 998.7 |
| 20260504171954 | 64 | 305 | 3.5 | 10.4 | 0.00 | 0.00 | 0.00 | 45 | 998.7 |
| 20260504171720 | 63 | 122 | 3.5 | 9.6 | 0.00 | 0.00 | 0.00 | 43 | 998.5 |
| 20260504170943 | 62 | 222 | 4.3 | 9.6 | 0.00 | 0.00 | 0.00 | 44 | 998.6 |
| 20260504170436 | 61 | 215 | 4.3 | 7.8 | 0.00 | 0.00 | 0.00 | 45 | 998.7 |
| 20260504160325 | 62 | 179 | 2.6 | 11.3 | 0.00 | 0.00 | 0.00 | 46 | 998.1 |
| 20260504150718 | 62 | 231 | 2.6 | 7.0 | 0.00 | 0.00 | 0.00 | 48 | 997.6 |
| 20260504150443 | 61 | 110 | 1.7 | 4.3 | 0.00 | 0.00 | 0.00 | 51 | 997.7 |
| 20260504141114 | 59 | 180 | 1.7 | 5.2 | 0.00 | 0.00 | 0.00 | 51 | 997.5 |
| 20260504140607 | 58 | 211 | 0.9 | 7.0 | 0.00 | 0.00 | 0.00 | 54 | 997.5 |
| 20260504140333 | 58 | 167 | 1.7 | 7.0 | 0.00 | 0.00 | 0.00 | 53 | 997.5 |
| 20260504130727 | 58 | 194 | 1.7 | 6.1 | 0.00 | 0.00 | 0.00 | 55 | 996.8 |
| 20260504110231 | 59 | 212 | 4.3 | 9.6 | 0.00 | 0.00 | 0.00 | 45 | 994.8 |
| 20260504100119 | 58 | 249 | 2.6 | 8.7 | 0.00 | 0.00 | 0.00 | 43 | 994.9 |